[[{"header":{"parameterUnit":"m.s-1","parameterCategory":1,"la1":30.2991,"la2":30.254,"lo1":-89.0895,"lo2":-89.0444,"dx":0.0017,"dy":0.0017,"nx":28,"ny":28,"refTime":"2022-11-05T21:00:00:Z","depth":0,"parameterNumber":2,"parameterNumberName":"U-component_of_WINDS"},"data":[0,0,0,0,0,0,0,0,0,0,0,0,0,0,0,0,0,0,0,0,0,0,0,0,0,0,0,0,0,0,0,0,0,0,0,0,0,0,0,0,0,0,0,0,0,0,0,0,0,0,0,0,0,0,0,0,0,0,-4.5014,-4.5013,0,-4.4892,-4.4891,-4.489,-4.4801,-4.48,-4.4799,-4.4798,-4.4666,-4.4664,-4.4661,0,0,0,0,0,0,0,0,0,0,0,0,0,-4.516,-4.5158,-4.5014,-4.5013,-4.5011,-4.4893,-4.4891,-4.4889,-4.4801,-4.48,-4.4799,-4.4798,-4.4667,-4.4664,-4.4661,0,0,0,0,0,0,0,0,0,0,0,0,0,-4.5074,-4.5157,-4.5014,-4.4953,-4.4946,-4.4893,-4.4891,-4.4889,-4.4801,-4.48,-4.4799,-4.4798,-4.4668,-4.4664,-4.466,-4.4656,0,0,-4.4647,-4.4645,0,0,0,0,0,0,0,0,-4.5079,-4.5068,-4.4963,-4.4957,-4.4949,-4.4861,-4.4894,-4.4811,-4.4801,-4.4856,-4.4798,-4.4797,-4.4731,-4.4722,-4.4701,-4.465,-4.4644,-4.4647,-4.4644,-4.4642,-4.4641,0,0,0,0,0,0,0,-4.5085,-4.5073,-4.4966,-4.4962,-4.4953,-4.4928,-4.4915,-4.4878,-4.4801,-4.4851,-4.4844,-4.4831,-4.4727,-4.4706,-4.4698,-4.4642,-4.4647,-4.4643,-4.464,-4.4639,-4.4577,-4.4577,0,0,0,0,0,0,-4.5101,-4.5079,-4.497,-4.4962,-4.5013,-4.4927,-4.4911,-4.489,-4.4801,-4.4787,-4.4833,-4.4828,-4.4713,-4.4703,-4.4693,-4.4679,-4.4642,-4.4638,-4.4636,-4.4576,-4.4577,-4.4578,0,0,0,0,0,0,-4.5105,-4.5093,-4.4974,-4.5018,-4.5002,-4.4925,-4.4902,-4.4888,-4.4867,-4.4788,-4.4772,-4.4825,-4.4712,-4.4699,-4.4665,-4.4673,-4.4636,-4.4633,-4.4575,-4.4576,-4.4577,-4.4654,0,0,0,0,0,0,-4.511,-4.5095,-4.5095,-4.5019,-4.5,-4.4953,-4.4903,-4.4887,-4.4861,-4.4853,-4.4777,-4.4763,-4.471,-4.4672,-4.4661,-4.4667,-4.4629,-4.4574,-4.4575,-4.4577,-4.4651,-4.4658,-4.4664,0,0,0,0,0,-4.5115,-4.512,-4.5095,-4.5082,-4.4999,-4.4953,-4.4942,-4.4883,-4.4862,-4.4859,-4.4808,-4.4765,-4.4675,-4.467,-4.4656,-4.4661,-4.4573,-4.4575,-4.4577,-4.4647,-4.4657,-4.4664,0,0,0,0,0,0,-4.5197,-4.5109,-4.508,-4.5062,-4.5016,-4.4939,-4.4934,-4.4895,-4.4853,-4.4847,-4.4774,-4.4758,-4.4731,-4.4693,-4.4689,-4.465,-4.4618,-4.4617,-4.4676,-4.4684,-4.4691,-4.47,-4.4626,0,0,0,0,0,-4.5213,-4.5186,-4.511,-4.5101,-4.508,-4.5011,-4.4989,-4.4948,-4.4897,-4.4876,-4.4822,-4.4771,-4.473,-4.4705,-4.4664,-4.4645,-4.4624,-4.4641,-4.4648,-4.4654,-4.4654,-4.4636,-4.4642,-4.4584,-4.4584,-4.4584,0,0,-4.5245,-4.5194,-4.5182,-4.5116,-4.5076,-4.5046,-4.4995,-4.4967,-4.4943,-4.4871,-4.4836,-4.4795,-4.4732,-4.4706,-4.4691,-4.4672,-4.4665,-4.4657,-4.4662,-4.4658,-4.4639,-4.4644,-4.4649,-4.4586,-4.4585,-4.4585,0,0,-4.5289,-4.525,-4.5236,-4.5197,-4.5136,-4.509,-4.5087,-4.5015,-4.4985,-4.495,-4.4894,-4.4863,-4.4796,-4.4753,-4.4722,-4.4747,-4.4705,-4.4736,-4.4771,-4.4755,-4.4759,-4.4763,-4.4769,-4.4772,-4.4736,-4.4736,-4.4736,0,-4.5336,-4.5293,-4.5233,-4.5208,-4.5179,-4.5114,-4.5097,-4.5061,-4.499,-4.497,-4.4951,-4.4863,-4.4817,-4.4777,-4.4783,-4.4762,-4.4752,-4.4744,-4.4764,-4.4767,-4.4769,-4.4774,-4.4777,-4.474,-4.474,-4.4739,-4.4739,0,-4.5352,-4.5322,-4.5318,-4.5252,-4.5223,-4.5203,-4.5137,-4.5113,-4.5075,-4.503,-4.4992,-4.4934,-4.4878,-4.4866,-4.4827,-4.4819,-4.4809,-4.4779,-4.4744,-4.478,-4.4783,-4.4784,-4.4746,-4.4744,-4.4743,-4.4742,0,0,-4.5443,-4.5345,-4.5344,-4.5312,-4.524,-4.5214,-4.5189,-4.5136,-4.5116,-4.5069,-4.5043,-4.4987,-4.4957,-4.4922,-4.4877,-4.4864,-4.4883,-4.4834,-4.4831,-4.4842,-4.4866,-4.4888,-4.4891,-4.4855,-4.4855,-4.4855,-4.487,0,-4.5474,-4.5428,-4.5372,-4.5344,-4.5313,-4.525,-4.5227,-4.5178,-4.5135,-4.51,-4.505,-4.5011,-4.4977,-4.4954,-4.4938,-4.4884,-4.4886,-4.4883,-4.4826,-4.4825,-4.4842,-4.4893,-4.4917,-4.4934,-4.4871,-4.4871,-4.4871,0,-4.5503,-4.546,-4.5429,-4.5358,-4.5342,-4.5324,-4.5269,-4.5238,-4.518,-4.5149,-4.511,-4.5062,-4.5027,-4.4999,-4.4948,-4.4947,-4.492,-4.489,-4.4889,-4.4879,-4.4849,-4.4882,-4.4938,-4.494,-4.4873,-4.4873,-4.4873,0,-4.5569,-4.5504,-4.5476,-4.5451,-4.5367,-4.5355,-4.5319,-4.526,-4.5231,-4.5182,-4.5162,-4.511,-4.508,-4.5039,-4.4976,-4.4962,-4.4931,-4.4898,-4.49,-4.4902,-4.4895,-4.4896,-4.4945,-4.4883,-4.4882,-4.4882,-4.4882,0,-4.5608,-4.559,-4.5504,-4.5487,-4.5464,-4.5399,-4.5377,-4.5335,-4.5283,-4.5253,-4.5195,-4.5167,-4.5088,-4.505,-4.5001,-4.4964,-4.4951,-4.4922,-4.4909,-4.4926,-4.493,-4.4906,-4.4902,-4.4883,-4.4883,-4.4883,-4.4883,0,-4.5677,-4.562,-4.5584,-4.5508,-4.5488,-4.5475,-4.5408,-4.5386,-4.5339,-4.5302,-4.5289,-4.5215,-4.5166,-4.5101,-4.5032,-4.4998,-4.4967,-4.4947,-4.4988,-4.4979,-4.4984,-4.4984,-4.5018,-4.5018,-4.4959,-4.4959,-4.496,0,-4.5704,-4.569,-4.5612,-4.559,-4.5556,-4.552,-4.5491,-4.5425,-4.5396,-4.5327,-4.5313,-4.5261,-4.5216,-4.5141,-4.5078,-4.5024,-4.5001,-4.5016,-4.4992,-4.5009,-4.4997,-4.4998,-4.4994,-4.5022,-4.5023,-4.5024,-4.5024,0,-4.5758,-4.573,-4.5691,-4.5642,-4.5608,-4.5566,-4.552,-4.5503,-4.5427,-4.5396,-4.5348,-4.5313,-4.5243,-4.519,-4.5128,-4.5086,-4.5041,-4.5033,-4.503,-4.5046,-4.5069,-4.5054,-4.5001,-4.5032,-4.5031,-4.5031,-4.503,-4.503,-4.5805,-4.5788,-4.573,-4.5688,-4.5647,-4.5605,-4.5581,-4.5531,-4.549,-4.543,-4.5393,-4.5345,-4.5283,-4.5194,-4.5154,-4.5113,-4.5095,-4.5092,-4.5091,-4.509,-4.5095,-4.5078,-4.5102,-4.5101,-4.5101,-4.5101,-4.51,0,-4.5852,-4.5812,-4.5775,-4.5713,-4.5679,-4.5643,-4.5589,-4.5562,-4.5522,-4.5469,-4.5426,-4.5368,-4.5316,-4.5249,-4.5192,-4.5171,-4.5149,-4.5158,-4.5157,-4.5148,-4.5116,-4.5123,-4.5177,-4.5177,-4.5177,-4.5177,-4.5177,-4.5177,-4.5873,-4.5842,-4.5806,-4.5752,-4.5711,-4.5666,-4.5638,-4.5597,-4.5555,-4.5494,-4.5452,-4.541,-4.5349,-4.5287,-4.5236,-4.5217,-4.5197,-4.5212,-4.5186,-4.5157,-4.515,-4.5144,-4.515,-4.5209,-4.5209,-4.5221,-4.5221,-4.5221]},{"header":{"parameterUnit":"m.s-1","parameterCategory":1,"la1":30.2991,"la2":30.254,"lo1":-89.0895,"lo2":-89.0444,"dx":0.0017,"dy":0.0017,"nx":28,"ny":28,"refTime":"2022-11-05T21:00:00:Z","depth":0,"parameterNumber":3,"parameterNumberName":"V-component_of_WINDS"},"data":[0,0,0,0,0,0,0,0,0,0,0,0,0,0,0,0,0,0,0,0,0,0,0,0,0,0,0,0,0,0,0,0,0,0,0,0,0,0,0,0,0,0,0,0,0,0,0,0,0,0,0,0,0,0,0,0,0,0,3.0815,3.0815,0,3.0735,3.0734,3.0733,3.0692,3.0692,3.0692,3.0692,3.06,3.0598,3.0595,0,0,0,0,0,0,0,0,0,0,0,0,0,3.0927,3.0925,3.0816,3.0815,3.0814,3.0735,3.0734,3.0733,3.0692,3.0692,3.0692,3.0692,3.0601,3.0598,3.0595,0,0,0,0,0,0,0,0,0,0,0,0,0,3.0865,3.0924,3.0816,3.0784,3.078,3.0735,3.0734,3.0733,3.0692,3.0692,3.0692,3.0692,3.0602,3.0598,3.0595,3.0573,0,0,3.0584,3.0582,0,0,0,0,0,0,0,0,3.0869,3.0861,3.0789,3.0786,3.0782,3.0724,3.074,3.0679,3.0692,3.0725,3.0692,3.0692,3.0641,3.0634,3.0618,3.0569,3.0565,3.0583,3.0581,3.058,3.0579,0,0,0,0,0,0,0,3.0873,3.0864,3.0783,3.0788,3.0784,3.0771,3.0762,3.0728,3.0683,3.0722,3.0719,3.071,3.0638,3.0622,3.0616,3.0563,3.0583,3.058,3.0578,3.0577,3.0492,3.0492,0,0,0,0,0,0,3.0884,3.0868,3.0786,3.0781,3.0826,3.0769,3.0759,3.0742,3.0684,3.0675,3.071,3.0709,3.0628,3.062,3.0613,3.0584,3.058,3.0576,3.0574,3.0492,3.0492,3.0492,0,0,0,0,0,0,3.0886,3.0877,3.0789,3.0824,3.0812,3.0767,3.0748,3.074,3.0724,3.0675,3.0666,3.0702,3.0628,3.0618,3.0584,3.058,3.0575,3.0571,3.0492,3.0492,3.0492,3.0525,0,0,0,0,0,0,3.0889,3.0878,3.0871,3.0824,3.081,3.0764,3.0748,3.0739,3.0719,3.0716,3.0665,3.0657,3.0627,3.059,3.058,3.0575,3.0568,3.0492,3.0492,3.0492,3.0524,3.0527,3.0528,0,0,0,0,0,3.0894,3.0881,3.0871,3.0861,3.0801,3.0764,3.0756,3.0724,3.0719,3.071,3.0679,3.0658,3.0582,3.0586,3.0576,3.0569,3.0492,3.0492,3.0492,3.0524,3.0526,3.0528,0,0,0,0,0,0,3.0925,3.0874,3.0862,3.0835,3.0805,3.0757,3.0745,3.0728,3.0696,3.0694,3.0654,3.0643,3.0613,3.0587,3.0593,3.0545,3.0535,3.0533,3.0563,3.0565,3.0567,3.0573,3.0565,0,0,0,0,0,3.0929,3.0907,3.0862,3.0842,3.0828,3.079,3.0772,3.0751,3.0717,3.0703,3.0669,3.0634,3.0603,3.0582,3.055,3.0521,3.0509,3.0511,3.0513,3.0515,3.0513,3.0496,3.0496,3.0491,3.0491,3.0491,0,0,3.0937,3.0906,3.0894,3.0848,3.0822,3.0797,3.0779,3.0753,3.0733,3.0698,3.0665,3.0639,3.0598,3.0567,3.0551,3.0544,3.0512,3.0515,3.0516,3.0513,3.0495,3.0496,3.0496,3.0491,3.0491,3.0491,0,0,3.0938,3.0913,3.0894,3.087,3.0832,3.0807,3.0802,3.0758,3.0741,3.0708,3.0681,3.0656,3.0602,3.0574,3.0552,3.0545,3.0525,3.0536,3.0545,3.0529,3.0529,3.0529,3.0526,3.0526,3.0534,3.0534,3.0534,0,3.0951,3.0915,3.0886,3.0862,3.0843,3.0814,3.0793,3.0769,3.0722,3.0708,3.0702,3.0635,3.0605,3.0567,3.0566,3.0549,3.0542,3.0541,3.0532,3.0532,3.0531,3.0528,3.0527,3.0536,3.0536,3.0536,3.0535,0,3.0933,3.0909,3.0897,3.0857,3.0835,3.0813,3.0779,3.0761,3.0742,3.0717,3.0683,3.0647,3.0607,3.0597,3.0576,3.0556,3.0553,3.054,3.0529,3.0534,3.053,3.0529,3.0538,3.0538,3.0537,3.0537,0,0,3.095,3.0895,3.0891,3.0873,3.083,3.0809,3.0786,3.0751,3.0736,3.0704,3.0682,3.0639,3.0627,3.0603,3.0579,3.0565,3.0562,3.0554,3.0552,3.0556,3.0536,3.0546,3.0545,3.0549,3.0548,3.0548,3.054,0,3.0944,3.0904,3.0878,3.0847,3.0824,3.0796,3.0775,3.0746,3.0722,3.0697,3.0669,3.0639,3.0626,3.0612,3.0597,3.0566,3.0557,3.0566,3.0526,3.0525,3.0537,3.0543,3.0553,3.0547,3.0538,3.0538,3.0538,0,3.0933,3.0906,3.0874,3.0835,3.0824,3.0807,3.0773,3.075,3.0715,3.0698,3.0673,3.065,3.0622,3.0615,3.0574,3.0581,3.0563,3.0545,3.0544,3.0538,3.0531,3.0537,3.0544,3.0543,3.0535,3.0535,3.0536,0,3.0948,3.0904,3.0879,3.0864,3.0818,3.0806,3.0786,3.0752,3.0733,3.0702,3.0689,3.0655,3.0635,3.0608,3.0575,3.0573,3.0539,3.0528,3.0522,3.0523,3.0515,3.0516,3.0519,3.0505,3.0505,3.0505,3.0505,0,3.0945,3.0926,3.0886,3.087,3.0848,3.0818,3.0796,3.0773,3.0743,3.0721,3.0694,3.0673,3.0632,3.0606,3.058,3.0551,3.0542,3.0526,3.052,3.0529,3.0531,3.0515,3.0515,3.0505,3.0505,3.0505,3.0505,0,3.0958,3.093,3.0902,3.0862,3.0851,3.0837,3.0801,3.0784,3.076,3.0733,3.0725,3.0685,3.0653,3.0619,3.0574,3.0557,3.0528,3.0519,3.0541,3.0537,3.0533,3.0534,3.0526,3.0523,3.0512,3.0512,3.0512,0,3.0957,3.0943,3.0903,3.0888,3.087,3.0845,3.0827,3.0796,3.0777,3.0738,3.0725,3.0692,3.0664,3.0614,3.0579,3.0545,3.0534,3.0534,3.0528,3.0538,3.0533,3.0535,3.0533,3.0535,3.0535,3.0535,3.0536,0,3.0959,3.0947,3.0923,3.0894,3.0874,3.0849,3.0823,3.0811,3.0775,3.0755,3.0724,3.0702,3.0659,3.0625,3.0587,3.0563,3.0543,3.0538,3.0535,3.0543,3.0557,3.0549,3.0545,3.0538,3.0538,3.0538,3.0537,3.0537,3.0964,3.0951,3.0921,3.0895,3.0873,3.085,3.0833,3.0808,3.0783,3.0747,3.073,3.0699,3.0664,3.0612,3.0589,3.0562,3.0556,3.0551,3.0549,3.0549,3.0551,3.0562,3.0555,3.0555,3.0555,3.0555,3.0554,0,3.0965,3.0945,3.0922,3.0888,3.0868,3.0854,3.0825,3.0808,3.0782,3.0753,3.0727,3.0691,3.066,3.0624,3.059,3.0575,3.0565,3.0567,3.0567,3.0562,3.0559,3.0565,3.0576,3.0576,3.0576,3.0576,3.0576,3.0576,3.0962,3.0939,3.0923,3.0888,3.0868,3.084,3.0824,3.0802,3.0779,3.0742,3.0717,3.0695,3.0663,3.0626,3.0596,3.0586,3.0574,3.0579,3.0566,3.0564,3.0562,3.056,3.0566,3.0577,3.0577,3.0571,3.0571,3.0571]}]]